Abbotsford, British Columbia

1:29 AM PST on January 20, 2018 (GMT -0800)
Abbotsford

Weather History for CYXX - April, 2014

Change the Weather History Date:

Monday, April 28, 2014

  Actual Average Record
Temperature  
Mean Temperature 50 °F -  
Max Temperature 59 °F 63 °F 73 °F (1998)
Min Temperature 40 °F 44 °F 35 °F (1999)
Degree Days  
Heating Degree Days 16    
Moisture  
Dew Point 38 °F    
Average Humidity 64    
Maximum Humidity 87    
Minimum Humidity 29    
Precipitation  
Precipitation 0.00 in 0.12 in - ()
Sea Level Pressure  
Sea Level Pressure 30.30 in    
Wind  
Wind Speed 4 mph ()    
Max Wind Speed 10 mph    
Max Gust Speed -    
Visibility 16.1 miles    
Events      
Averages and records for this station are not official NWS values.
T = Trace of Precipitation, MM = Missing Value Source: Averaged Metar Reports

Daily Weather History Graph

Daily Weather History Graph

Search for Another Location

Airport or City:

Trip Planner

Search our weather history database for the weather conditions in past years. The results will help you decide how hot, cold, wet, or windy it might be!

Date:

Astronomy

Apr. 28, 2014 Rise Set
Actual Time 5:53 AM PDT 8:21 PM PDT
Civil Twilight 5:18 AM PDT 8:56 PM PDT
Nautical Twilight 4:34 AM PDT 9:41 PM PDT
Astronomical Twilight 3:42 AM PDT 10:33 PM PDT
Moon 5:40 AM PDT (4/28) 8:02 PM PDT (4/28)
Length of Visible Light 15h 38m
Length of Day
14h 27m
Waning Crescent, 0% of the Moon is Illuminated
Apr 28
Waning Crescent
Apr 28
New
May 6
First Quarter
May 14
Full
May 21
Last Quarter

Hourly Weather History & Observations

Time (PDT) Temp. Windchill Dew Point Humidity Pressure Visibility Wind Dir Wind Speed Gust Speed Precip Events Conditions
12:00 AM 42.8 °F 38.6 °F 37.4 °F 81% 30.09 in 15.0 mi South 6.9 mph - N/A   Partly Cloudy
1:00 AM 41.0 °F 39.0 °F 37.4 °F 87% 30.12 in 15.0 mi SSW 3.5 mph - N/A   Scattered Clouds
2:00 AM 42.8 °F 40.1 °F 39.2 °F 87% 30.14 in 15.0 mi SSW 4.6 mph - N/A   Mostly Cloudy
3:00 AM 44.6 °F 43.1 °F 41.0 °F 87% 30.17 in 15.0 mi South 3.5 mph - N/A   Mostly Cloudy
4:00 AM 44.6 °F - 41.0 °F 87% 30.20 in 15.0 mi South 2.3 mph - N/A   Overcast
5:00 AM 45 °F - 41 °F 79% 30.23 in 15 mi SSW 5.8 mph - -   Overcast
5:00 AM 44.6 °F 41.4 °F 41.0 °F 87% 30.23 in 15.0 mi SSW 5.8 mph - N/A   Overcast
6:00 AM 42.8 °F 37.0 °F 39.2 °F 87% 30.25 in 20.0 mi South 10.4 mph - N/A   Partly Cloudy
7:00 AM 44.6 °F 42.2 °F 39.2 °F 81% 30.27 in 20.0 mi SSW 4.6 mph - N/A   Partly Cloudy
8:00 AM 44.6 °F - 39.2 °F 81% 30.30 in 25.0 mi Calm Calm - N/A   Scattered Clouds
9:00 AM 48.2 °F - 39.2 °F 71% 30.32 in 25.0 mi Variable 2.3 mph - N/A   Mostly Cloudy
10:00 AM 48.2 °F - 39.2 °F 71% 30.34 in 25.0 mi SSW 8.1 mph - N/A   Mostly Cloudy
11:00 AM 51 °F - 39 °F 53% 30.35 in 19 mi Calm Calm - -   Partly Cloudy
12:00 PM 53.6 °F - 39.2 °F 58% 30.36 in 25.0 mi SW 3.5 mph - N/A   Mostly Cloudy
1:00 PM 55.4 °F - 39.2 °F 54% 30.36 in 25.0 mi Variable 2.3 mph - N/A   Scattered Clouds
2:00 PM 55.4 °F - 35.6 °F 47% 30.36 in 30.0 mi SSE 4.6 mph - N/A   Mostly Cloudy
3:00 PM 57.2 °F - 35.6 °F 44% 30.37 in 30.0 mi Variable 2.3 mph - N/A   Scattered Clouds
4:00 PM 57.2 °F - 33.8 °F 41% 30.37 in 30.0 mi NNE 3.5 mph - N/A   Scattered Clouds
5:00 PM 59 °F - 35 °F 29% 30.36 in 28 mi NE 2.3 mph - -   Scattered Clouds
5:00 PM 59.0 °F - 35.6 °F 42% 30.36 in 30.0 mi ENE 5.8 mph - N/A   Mostly Cloudy
6:00 PM 59.0 °F - 37.4 °F 45% 30.35 in 30.0 mi ENE 8.1 mph - N/A   Scattered Clouds
7:00 PM 57.2 °F - 37.4 °F 48% 30.36 in 30.0 mi North 8.1 mph - N/A   Scattered Clouds
8:00 PM 55.4 °F - 35.6 °F 47% 30.36 in 30.0 mi NNE 5.8 mph - N/A   Mostly Cloudy
9:00 PM 51.8 °F - 37.4 °F 58% 30.38 in 30.0 mi NNE 5.8 mph - N/A   Partly Cloudy
10:00 PM 51.8 °F - 37.4 °F 58% 30.38 in 15.0 mi NE 6.9 mph - N/A   Scattered Clouds
11:00 PM 49 °F - 39 °F 58% 30.39 in 15 mi NNE 5.8 mph - -   Mostly Cloudy
11:00 PM 48.2 °F - 39.2 °F 71% 30.39 in 15.0 mi NNE 6.9 mph - N/A   Mostly Cloudy